OBJECT D, 64531

Orbit data source: Space-Track

You're viewing an Uncataloged Satellite

Recently launched and/or uncataloged satellites may have evolving metadata. Metadata may include but not limited to: Owner, Maufacturer, Bus, Motor, and Mission.

OBJECT D, 64531 is a New Zealander satellite in SSO that was launched on Mon, 23 Jun 2025 UTC via an FALCON 9 launch vehicle from the Air Force Western Test Range (AFWTR). Unknown objects in Earth's orbit typically refer to objects detected orbiting the Earth but have not yet been identified or cataloged. These objects could be anything from previously untracked satellites, spent rocket stages, debris from satellite collisions, or even natural meteoroids temporarily captured by Earth's gravity.

Loading next visibility...
Identifier
64531, 2025-135D
Orbit
SSO
Country
Flag of NZNZ
Related business
None
Manufacturer
Unknown
Mission
Operational Commercial Imaging
Bus & Motor
Unknown
Mass
Unknown
Launch date (UTC)
2025-06-23 (9 months ago)
Launch vehicle
FALCON 9
Launch site
Air Force Western Test Range (AFWTR)
Object type
Unknown
Shape & HBR
Box, 0.1 m
Radar Cross Section
0.015 m², Medium (>0.1 m² and < 1m²)

Expand to show TLE details & history
Last TLE update: 14 hours ago

TLE from 14 hours ago
0 OBJECT D
1 64531U 25135D   26067.94169097  .00019262  00000-0  79986-3 0  9993
2 64531  97.4591 184.4015 0005376 150.6859 209.4681 15.23861364 39645
Epoch: 2026-03-08T22:36Z
TLE epoch observation values (Epoch: 2026-03-08T22:36:02.099Z)
Latitude
-0.00001°
Longitude
38.75099°
Altitude
500.519 km
Speed
7.612 km/s
True Right ascension
12h 17m 36s
True Declination
0° 00' 00"
Sunlit
Object was in full shadow at epoch
Visualization orbit readout
Latitude
Unknown
Longitude
Unknown
Altitude
Unknown
Speed
Unknown
Apparent Right ascension
Unknown
Apparent Declination
Unknown
Sunlit
N/A
Visualization observer readout
Local Sidereal Time
16:36:44
Azimuth
Unknown
Elevation
Unknown
Doppler factor
Unknown
Orbital elements
Apogee altitude
494.863 km
Perigee altitude
487.477 km
Semi-major axis
6,869.307 km
Eccentricity
0.00054
Inclination
97.4591°
RAAN
184.4015°
Arg. of periapsis
150.6859°
True anomaly
209.43781°
Mean anomaly
209.4681°
Eccentric anomaly
209.45295°
Mean motion
3.81218 °/min
Orbital period
94.43 mins
BSTAR
0.00079986
Loading maneuver chart data...
Computing Atmospheric mass density...
Loading historical data...
Loading historical data...
Loading historical data...
Loading historical data...
Loading historical data...
Loading historical data...
Loading historical data...

Documentation

Showing up to 5 results
|